This is the latest recevied weather packets stored in our database for station/object K5KVN. If no packets are shown the sender has not sent any weather packets the latest 10 day(s).
| Time | Temp. | Humidity | Pressure | Rain* | Wind** | Luminosity | Snow |
|---|---|---|---|---|---|---|---|
| 1787866088 | 34.44° C | 43% | 1017.1 hPa | 0 mm | - | - | - |
| 1787865547 | 33.89° C | 44% | 1017.2 hPa | 0 mm | - | - | - |
| 1787864886 | 33.89° C | 43% | 1017.3 hPa | 0 mm | - | - | - |
| 1787864345 | 34.44° C | 43% | 1017.4 hPa | 0 mm | - | - | - |
| 1787863745 | 35° C | 44% | 1017.5 hPa | 0 mm | - | - | - |
| 1787863086 | 34.44° C | 45% | 1017.5 hPa | 0 mm | - | - | - |
| 1787862484 | 33.89° C | 46% | 1017.7 hPa | 0 mm | - | - | - |
| 1787861884 | 34.44° C | 45% | 1017.9 hPa | 0 mm | - | - | - |
| 1787861284 | 33.89° C | 45% | 1017.8 hPa | 0 mm | - | - | - |
| 1787860682 | 33.89° C | 48% | 1018.1 hPa | 0 mm | - | - | - |
| 1787860082 | 33.89° C | 47% | 1018.1 hPa | 0 mm | - | - | - |
| 1787859484 | 33.89° C | 47% | 1018.2 hPa | 0 mm | - | - | - |
| 1787858881 | 33.89° C | 48% | 1018.3 hPa | 0 mm | - | - | - |
| 1787858282 | 33.89° C | 48% | 1018.3 hPa | 0 mm | - | - | - |
| 1787857681 | 33.89° C | 48% | 1018.6 hPa | 0 mm | - | - | - |
| 1787857081 | 33.89° C | 47% | 1018.6 hPa | 0 mm | - | - | - |
| 1787856479 | 32.78° C | 52% | 1018.6 hPa | 0 mm | - | - | - |
| 1787855880 | 32.78° C | 51% | 1018.8 hPa | 0 mm | - | - | - |
| 1787855280 | 33.33° C | 51% | 1019 hPa | 0 mm | - | - | - |
| 1787854679 | 33.33° C | 53% | 1019 hPa | 0 mm | - | - | - |
| 1787854138 | 33.33° C | 51% | 1019 hPa | 0 mm | - | - | - |
| 1787853476 | 33.33° C | 54% | 1019.1 hPa | 0 mm | - | - | - |
| 1787852877 | 33.33° C | 53% | 1019.2 hPa | 0 mm | - | - | - |
| 1787852274 | 33.33° C | 54% | 1019.3 hPa | 0 mm | - | - | - |
| 1787851734 | 32.78° C | 53% | 1019.4 hPa | 0 mm | - | - | - |
* Rain latest hour (hover to see other rain measurements)
** Current wind speed in m/s (hover to see current wind gust speed)